Flag for Philippines Weather past 2 weeks in Tarlac City, Philippines

Now
82 °F

Broken clouds.


Feels Like: 88 °F
Forecast: 72 / 89 °F
Wind: 6 mph from Northeast

Location: Clarkfield Pampanga International Airport

Current Time: Aug 29, 2014 at 1:48:55 PM

Latest Report: Aug 29, 2014 at 1:00 PM


Visibility: N/A

Pressure: 29.83 "Hg

Humidity: 74%

Dew point: 73 °F

Location of Tarlac CityLocation

Historic Weather in Tarlac City — Graph

°F

Tarlac City temperature yesterday

Maximum temperature yesterday: 84 °F (at 11:00 AM)
Minimum temperature yesterday: 72 °F (at 2:00 PM)
Average temperature yesterday: 77 °F

Past Weeks' High & Low Weather Summary

 TemperatureHumidityPressure
High93 °F (Aug 14, 1:00 PM)100% (Aug 15, 1:00 AM)29.98 "Hg (Aug 15, 1:00 AM)
Low72 °F (Aug 28, 2:00 PM)41% (Aug 14, 1:00 PM)29.74 "Hg (Aug 26, 4:00 PM)
Average80 °F86%29.86 "Hg
* Reported Aug 14 12:00 Noon — Aug 29 12:00 Noon, Tarlac City, Weather by CustomWeather, © 2014

Note: Actual official high and low records may vary slightly from our data, if they occured in-between our weather recording intervals... More about our weather records

Advertising

Tarlac City weather history for previous 24 hours

 ConditionsComfort  
Time TempWeatherWind HumidityBarometerVisibility
12:00 PM
Aug 29
81 °FBroken clouds.8 mph79%29.86 "HgN/A
11:00 AM79 °FBroken clouds.5 mph84%29.92 "HgN/A
10:00 AM79 °FBroken clouds.9 mph84%29.89 "HgN/A
8:00 AM77 °FBroken clouds.7 mph89%29.89 "Hg6 mi
7:00 AM73 °FBroken clouds.7 mph100%29.86 "Hg6 mi
6:00 AM73 °FBroken clouds.6 mph100%29.86 "Hg6 mi
5:00 AM73 °FPartly cloudy.7 mph100%29.86 "Hg6 mi
4:00 AM73 °FPartly cloudy.9 mph100%29.86 "Hg6 mi
3:00 AM73 °FLight rain. Mostly cloudy.7 mph100%29.86 "Hg5 mi
2:00 AM73 °FLight rain. Mostly cloudy.6 mph100%29.89 "Hg5 mi
1:00 AM73 °FSprinkles. Mostly cloudy.8 mph100%29.89 "Hg5 mi
12:00 AM77 °FPassing clouds.5 mph79%29.89 "HgN/A
11:00 PM
Aug 28
75 °FPassing clouds.6 mph83%29.89 "HgN/A
10:00 PM79 °FPassing clouds.8 mph74%29.89 "HgN/A
9:00 PM73 °FPassing clouds.2 mph100%29.89 "HgN/A
8:00 PM73 °FPartly cloudy.5 mph100%29.89 "HgN/A
7:00 PM75 °FMostly cloudy.3 mph94%29.89 "HgN/A
6:00 PM75 °FMore clouds than sun.2 mph89%29.86 "Hg4 mi
5:00 PM75 °FMore clouds than sun.5 mph94%29.83 "HgN/A
4:00 PM77 °FLight rain. More clouds than sun.7 mph89%29.83 "HgN/A
3:00 PM75 °FLight rain. More clouds than sun.2 mph89%29.86 "Hg6 mi
2:00 PM72 °FSprinkles. More clouds than sun.5 mph100%29.92 "Hg3 mi
1:20 PM73 °FRain showers. More clouds than sun.21 mph100%29.92 "Hg3 mi
1:00 PM82 °FPartly sunny.7 mph70%29.89 "HgN/A
Weather by CustomWeather, © 2014

See weather overviewHow to use our weather pages